GFSGL_700_rhum_246.txt.gz
RH
45 44 46 51 52 46 39 36 46 51 55 52 49 54 54 47 42 39 38 39 26 21 26 30 27 25 27 30 35 55 74 87 87 96 98 86 59 82 85 94 98 87 87
44 56 65 67 65 62 54 39 33 32 35 40 41 44 49 46 35 35 37 39 36 40 52 64 46 28 28 29 49 60 61 74 89 98 89 73 64 94 96 84 99 91 91
37 37 37 39 41 57 60 59 59 55 50 42 38 34 32 35 34 33 33 34 35 44 55 56 57 48 36 37 72 74 63 72 88 95 86 85 78 91 90 100 100 91 95
39 40 39 40 36 36 38 34 50 60 60 56 46 47 49 52 47 50 46 44 43 52 48 44 56 52 34 41 66 72 76 93 96 98 89 89 81 96 97 99 96 78 95
34 36 39 37 36 32 32 25 24 30 38 46 45 42 43 50 55 53 52 48 47 49 42 40 41 32 31 38 56 71 75 77 98 92 87 92 89 88 72 100 100 90 96
41 44 42 45 45 44 40 38 42 42 36 35 37 33 35 43 48 50 50 50 48 45 30 28 25 25 25 29 51 56 64 68 89 91 91 93 98 100 85 95 100 89 92
35 33 44 56 53 54 52 51 54 56 56 52 51 50 44 40 41 45 42 39 40 48 38 29 27 22 24 30 69 57 66 96 77 94 91 97 100 100 100 97 100 99 88
20 19 17 19 38 34 47 48 46 47 42 42 54 56 55 55 53 49 45 42 36 34 33 33 47 53 53 55 76 59 71 97 98 100 100 100 99 100 100 100 99 97 83
32 36 35 23 18 20 23 29 40 43 37 32 34 35 45 53 52 51 49 46 44 41 35 41 55 78 65 79 81 61 62 77 100 94 100 100 100 100 99 99 95 96 87
42 35 30 29 20 15 14 19 25 28 40 31 29 29 34 39 45 47 48 47 46 44 41 45 51 54 99 100 99 71 98 100 100 99 97 100 100 100 99 98 98 99 95
32 35 33 29 24 19 14 16 19 23 25 24 25 24 25 30 37 41 43 43 45 49 51 50 63 91 75 100 88 100 89 99 95 100 99 100 100 98 99 99 97 97 86
32 29 29 22 31 33 37 27 24 21 18 19 22 22 22 24 27 34 40 40 36 38 45 52 77 100 97 98 93 99 100 100 100 100 100 100 98 98 98 98 99 79 61
24 22 28 36 45 48 39 46 39 37 33 22 17 16 17 17 20 24 29 38 38 33 36 43 67 98 99 100 99 100 99 100 100 94 100 99 99 97 97 98 87 66 60
29 29 34 37 59 68 60 52 54 57 54 48 27 15 15 14 15 16 18 26 30 30 32 38 64 94 100 96 100 100 100 100 94 98 100 98 98 97 95 95 82 66 50
28 29 31 36 40 57 72 60 59 52 86 81 54 30 18 19 19 16 15 17 19 25 30 41 54 88 100 100 100 100 100 95 97 100 97 97 98 100 97 91 68 49 22
54 46 39 36 39 59 77 77 82 70 77 86 79 55 37 25 27 23 18 15 16 19 33 51 57 94 100 100 99 98 99 98 100 98 99 100 99 100 86 64 43 19 14
55 59 63 56 44 43 46 65 76 74 78 81 86 87 60 46 35 34 28 19 17 18 25 80 96 100 99 100 98 98 98 100 95 97 98 97 97 88 62 41 20 16 16
71 64 60 60 63 60 45 47 62 76 80 90 89 76 75 76 60 49 39 34 19 16 23 81 100 100 100 100 98 98 97 99 96 92 97 97 95 62 30 19 17 17 13
85 87 84 77 68 65 67 63 55 59 66 72 82 85 65 67 65 63 51 38 32 18 19 56 100 100 100 100 98 98 97 97 94 94 96 97 71 30 21 20 18 10 7
72 70 79 92 90 84 79 73 72 71 71 70 71 75 84 82 66 50 58 39 36 33 21 55 99 100 100 100 98 97 97 97 95 96 94 49 28 22 21 16 9 6 6
70 72 77 83 100 100 100 98 87 80 80 81 84 89 86 86 78 69 59 39 32 39 86 53 98 99 99 98 97 96 97 98 95 94 54 30 23 22 13 7 6 4 3
81 89 92 94 95 95 95 96 97 98 94 91 93 97 97 97 84 78 66 38 39 41 100 96 99 96 98 96 97 96 97 96 91 68 32 26 19 10 6 5 3 2 2
88 94 96 97 98 96 96 96 88 96 100 98 97 96 96 99 100 92 64 56 58 52 98 100 91 97 96 98 95 97 97 92 58 31 28 15 8 5 4 2 2 2 2
88 98 98 96 98 98 96 96 94 98 98 96 98 97 96 98 100 100 95 71 99 91 98 100 95 98 95 97 96 95 92 51 34 24 10 6 4 3 2 2 2 2 3
89 93 97 98 96 97 96 96 97 97 96 96 95 95 98 98 100 100 100 100 98 96 96 98 96 96 97 96 96 86 40 33 18 8 5 3 2 2 2 2 3 3 3
94 90 96 97 97 98 100 98 96 97 96 96 96 96 96 97 98 98 96 96 95 95 97 96 98 94 96 95 73 39 25 12 6 4 3 2 2 2 3 3 4 4 4

GFSGL_700_rhum_249.txt.gz
RH
28 44 53 61 62 66 81 72 70 74 62 85 76 80 83 65 87 74 61 56 67 69 61 63 53 48 32 43 50 59 62 76 96 91 93 99 98 95 100 96 72 84 99
86 76 58 56 58 57 56 56 61 66 69 69 62 54 47 51 54 55 58 62 64 66 42 43 48 48 46 57 49 49 72 76 90 100 98 98 95 100 80 96 81 88 95
77 83 83 76 73 73 77 70 58 48 40 37 35 33 37 39 48 45 39 43 48 43 42 36 38 55 57 55 48 52 62 74 72 96 96 96 87 97 96 99 94 93 100
52 52 53 56 62 69 73 74 69 65 64 62 63 58 59 57 53 47 41 47 52 40 37 41 45 54 52 61 56 70 76 65 60 82 91 93 95 93 92 96 100 100 100
58 54 53 50 46 43 41 40 40 39 35 37 43 43 47 48 55 58 54 54 47 51 45 43 49 51 48 47 53 53 53 46 51 78 91 87 84 92 94 100 100 100 100
86 83 66 77 76 52 48 48 45 49 48 34 26 29 31 35 40 54 52 47 48 56 60 62 51 51 51 64 47 43 45 33 43 77 73 80 89 100 100 100 100 99 99
53 36 33 57 64 68 66 56 48 47 40 37 41 36 38 44 43 41 37 36 39 50 56 55 52 55 52 60 55 37 33 38 36 81 76 79 84 100 94 100 99 100 100
32 40 28 39 23 23 22 40 51 51 52 52 52 53 53 53 51 50 47 46 48 47 46 48 47 44 44 47 49 57 49 49 59 67 95 97 84 96 87 100 98 100 100
40 36 28 23 20 18 26 25 15 36 45 45 51 50 45 37 40 47 55 56 54 54 53 51 49 47 46 45 45 56 69 95 72 83 85 74 80 100 99 99 100 99 100
22 23 24 23 18 8 10 12 15 15 14 26 35 49 48 43 32 32 33 37 46 51 51 51 50 48 46 46 49 82 90 64 100 98 88 65 76 99 99 90 100 98 99
26 22 24 22 16 13 12 13 14 12 11 10 13 19 28 29 39 33 32 29 31 33 40 44 46 47 48 51 56 50 78 84 96 98 87 98 95 88 100 100 98 97 96
28 25 23 22 22 22 21 19 17 14 13 10 12 12 15 21 22 30 27 29 28 25 27 33 40 38 39 48 64 76 100 87 100 97 100 100 100 99 100 100 99 96 100
22 22 22 20 20 19 18 20 23 23 25 26 26 18 14 20 20 20 20 21 21 23 24 26 33 37 36 37 48 62 100 99 100 100 100 100 100 98 100 98 96 98 98
18 19 20 20 18 19 19 18 17 19 26 31 33 29 24 27 16 16 17 16 15 17 19 21 24 28 32 36 36 52 97 100 100 100 100 97 100 100 98 99 98 96 94
19 18 19 21 24 26 28 27 26 24 29 41 46 64 51 40 35 28 27 20 15 13 14 16 18 21 27 35 37 52 84 100 99 100 99 99 100 100 100 96 96 96 90
48 47 46 45 46 45 45 46 47 36 35 38 42 59 64 71 74 67 44 41 27 19 16 13 14 16 21 48 49 68 92 95 99 99 100 98 97 99 100 98 96 86 53
77 79 76 69 58 49 48 46 44 50 42 36 42 62 67 75 93 88 60 49 36 27 24 18 16 14 16 45 96 93 100 98 99 98 96 98 97 97 100 98 92 65 18
77 79 79 76 73 72 71 63 52 51 54 55 50 55 71 73 84 87 83 66 45 32 28 26 20 20 21 70 100 100 99 100 100 98 97 97 96 96 95 88 48 19 18
76 75 72 65 59 58 60 68 75 69 58 57 62 52 59 88 79 85 77 63 60 43 33 34 41 41 60 96 100 100 100 100 98 100 95 97 97 97 93 76 25 20 12
77 75 71 66 68 74 70 63 66 84 84 70 64 68 59 66 72 71 67 61 57 48 36 41 46 72 100 99 98 99 98 98 97 97 98 97 96 95 58 24 21 11 6
79 79 76 80 90 92 93 94 90 87 93 92 83 74 72 74 74 73 75 75 73 59 47 50 63 52 100 100 98 97 99 97 98 96 97 97 94 52 24 20 9 6 4
85 86 79 86 94 95 98 98 96 96 97 97 100 94 91 88 79 80 83 77 78 69 56 52 68 61 89 100 98 97 94 97 97 97 97 95 69 26 17 8 5 3 2
85 88 82 89 98 98 95 97 97 96 96 96 96 97 97 97 97 89 97 99 94 78 76 80 60 90 78 97 96 96 96 97 95 97 95 63 26 12 6 4 2 2 2
87 90 83 92 98 99 96 98 96 96 98 99 98 96 100 96 100 97 97 98 100 100 97 79 100 96 93 97 98 95 97 96 95 83 40 22 8 5 3 2 2 2 3
90 90 84 92 96 99 94 94 99 98 100 98 97 98 96 98 97 97 96 97 99 100 100 95 99 92 94 97 96 95 96 95 80 35 15 7 4 2 2 2 3 3 3
94 95 87 91 95 97 97 95 96 96 96 97 99 98 96 96 96 96 95 96 95 95 98 94 99 94 96 97 98 95 89 49 25 10 5 3 2 2 3 3 3 4 4

GFSGL_700_rhum_255.txt.gz
RH
44 35 23 22 29 25 20 22 31 31 24 25 29 47 68 56 62 70 76 90 82 69 87 81 85 76 70 85 85 91 88 98 92 83 78 68 58 63 66 75 72 88 79
75 49 44 34 54 60 98 89 100 97 98 81 96 69 71 72 65 65 66 63 73 82 85 79 72 81 77 93 68 88 72 79 66 68 67 69 58 65 68 70 74 74 82
99 100 99 100 100 99 100 99 98 98 100 99 88 72 65 65 56 54 59 68 74 90 98 74 63 64 67 66 72 66 64 62 56 54 61 56 56 62 64 75 76 80 76
62 73 82 91 99 100 99 99 99 99 99 97 98 86 72 68 61 62 60 65 56 75 67 59 61 60 58 58 52 52 60 62 57 57 56 56 61 70 84 65 55 45 56
77 69 66 61 60 66 78 84 86 93 97 98 99 97 91 85 80 80 77 72 71 72 72 61 62 54 51 48 53 55 59 56 67 73 72 68 74 77 77 70 62 47 50
97 97 96 80 68 61 55 55 54 54 55 58 61 62 61 63 60 58 55 44 40 43 48 51 57 54 44 37 39 48 51 48 62 77 78 80 78 75 72 57 53 52 61
51 63 74 86 95 94 84 73 57 55 56 54 53 53 53 52 49 47 48 50 49 47 43 38 33 32 31 33 35 31 33 41 48 59 66 65 63 68 60 48 60 74 83
29 28 29 27 27 31 46 88 95 91 70 62 60 56 55 60 60 56 54 52 48 47 44 40 36 32 36 31 33 31 27 28 37 43 46 50 51 51 49 48 68 75 75
21 19 22 21 19 20 18 17 22 39 41 86 88 84 67 60 54 53 54 49 46 46 45 45 43 40 40 32 32 35 37 38 39 44 49 48 46 47 50 92 91 86 86
24 22 22 21 18 18 22 23 21 17 14 18 24 37 46 51 62 64 63 49 47 39 42 44 44 43 42 42 40 40 45 50 48 45 48 49 50 52 51 67 100 90 100
24 23 21 20 19 16 15 17 22 23 19 18 16 16 15 17 18 20 23 27 27 35 33 25 37 44 44 43 38 36 35 36 40 45 47 48 49 52 56 63 84 86 93
22 23 24 23 20 18 17 16 14 14 15 17 18 16 16 17 17 17 14 11 10 9 12 13 13 18 31 41 41 34 32 30 31 35 40 40 39 41 49 50 89 98 96
28 29 30 26 23 21 18 15 14 14 13 11 10 10 11 13 14 16 16 15 15 12 8 6 7 8 8 12 21 27 34 33 29 27 32 38 39 42 48 62 94 90 92
53 54 54 53 52 51 45 35 24 15 13 12 12 10 10 9 11 13 16 16 16 14 14 13 14 12 8 6 7 10 13 21 21 22 25 32 37 43 45 86 91 92 95
57 56 55 55 55 51 50 49 48 46 38 23 17 12 10 8 8 16 21 21 20 22 22 17 20 18 14 12 9 9 11 13 15 17 20 25 38 45 76 83 99 100 99
62 59 59 53 51 54 57 54 61 60 60 57 48 34 20 12 11 16 29 36 32 29 29 27 33 31 24 19 20 17 14 15 16 19 47 59 41 57 94 100 100 99 91
64 50 52 49 47 59 67 64 58 57 56 54 53 53 52 46 39 30 37 49 52 41 31 36 55 51 43 30 25 23 21 21 35 99 100 100 97 100 100 99 100 98 92
65 46 38 43 54 73 71 66 61 54 47 44 45 46 46 44 44 49 57 54 53 50 39 57 69 71 57 53 43 34 31 32 60 99 100 100 100 100 100 100 100 100 100
55 39 43 47 75 78 76 71 64 59 57 61 71 74 71 61 52 47 57 65 58 63 56 75 90 86 76 68 62 56 51 50 80 99 96 98 98 98 98 97 98 100 100
39 39 46 67 82 82 80 76 76 82 88 86 80 76 75 71 69 69 65 76 69 67 64 82 100 92 85 77 71 64 59 70 83 100 98 97 97 97 96 96 97 96 92
35 43 56 83 84 83 82 84 91 93 93 90 85 85 87 87 88 89 88 88 81 78 86 100 100 99 94 96 80 71 62 64 96 100 98 96 96 97 97 96 96 95 81
36 50 71 83 82 82 85 92 92 90 88 90 94 97 96 96 93 98 99 97 89 84 74 100 100 100 93 87 85 79 66 63 91 97 96 96 94 96 97 93 94 85 44
44 52 79 86 86 85 90 94 90 88 87 92 93 92 95 94 99 96 96 96 95 80 76 96 99 99 97 100 100 90 66 82 90 100 100 96 95 96 96 97 87 58 12
44 53 82 87 87 90 93 90 91 93 95 94 91 90 93 95 97 96 96 96 96 85 78 78 94 98 100 100 100 88 82 89 95 100 96 95 96 96 96 70 23 7 5
46 56 81 89 90 92 93 94 95 98 98 96 95 98 98 97 96 96 96 96 96 96 93 94 96 96 98 98 100 88 100 100 94 96 98 96 96 94 67 37 7 3 3
47 62 83 92 93 95 95 94 95 99 99 98 96 94 92 97 97 96 96 96 96 95 96 96 96 96 96 98 100 100 98 94 94 97 97 94 92 60 17 4 4 3 4

GFSGL_700_rhum_261.txt.gz
RH
40 32 39 40 29 27 23 24 23 22 21 20 21 21 21 22 28 22 19 21 21 23 24 26 56 69 73 82 77 70 70 73 65 66 62 47 55 82 72 95 92 88 64
100 97 99 94 63 36 33 23 22 23 24 25 24 27 34 35 30 57 72 62 60 59 72 60 54 58 74 73 76 86 85 79 65 59 53 41 56 55 60 71 71 67 61
98 100 100 100 88 81 66 45 32 32 30 37 40 34 97 53 87 73 93 98 96 91 94 73 70 69 67 72 71 79 76 66 63 60 50 49 49 54 56 60 73 65 60
98 90 91 97 100 100 99 100 93 83 88 83 59 65 86 93 96 99 98 89 98 97 75 82 65 79 77 83 84 80 83 79 66 66 65 59 60 64 64 71 65 59 63
96 97 95 91 87 85 96 98 98 100 100 100 100 100 99 99 99 99 99 99 99 99 90 99 80 77 91 86 94 90 85 69 69 81 64 66 64 74 69 71 66 53 56
37 55 90 96 96 95 91 86 73 75 81 96 99 99 98 100 100 100 98 100 99 100 97 95 95 90 77 89 85 92 88 81 81 81 71 68 66 63 51 54 51 46 53
24 28 28 32 58 81 87 88 91 82 72 66 65 69 78 84 96 99 95 98 99 98 97 89 94 82 81 80 80 82 83 79 74 68 60 56 49 39 40 45 48 46 53
19 23 23 25 24 27 45 35 59 89 92 94 89 76 68 72 69 61 54 65 70 76 76 77 76 77 82 82 74 65 53 54 56 57 52 45 42 43 36 41 48 53 53
10 12 20 24 24 21 21 22 19 29 45 41 49 73 94 87 50 66 75 67 56 51 49 48 49 51 53 52 56 63 61 65 53 46 51 36 40 46 41 43 48 54 55
12 18 19 18 24 24 22 21 20 18 17 20 21 16 29 35 34 66 63 81 82 73 70 66 68 65 58 65 69 80 84 80 71 71 47 42 40 44 43 44 45 47 48
47 48 50 47 39 31 23 18 17 16 16 15 14 15 15 14 14 15 17 16 23 33 42 65 71 86 88 93 94 92 71 67 43 40 39 41 43 43 41 38 38 37 39
55 53 53 54 54 51 47 43 38 35 29 19 14 12 12 13 14 13 13 15 18 15 14 15 15 24 39 46 36 26 20 20 18 20 15 24 22 29 40 41 37 32 31
54 56 51 48 48 46 44 46 46 47 44 40 37 32 23 20 19 16 12 14 14 14 13 14 14 16 16 16 16 15 12 12 10 8 7 7 8 10 12 22 37 35 30
62 62 58 52 45 43 42 42 43 36 33 35 41 42 40 38 38 32 26 24 18 13 12 11 10 11 13 16 16 15 15 14 14 14 12 10 9 8 9 13 21 26 30
62 61 56 49 49 49 45 38 33 30 29 29 41 47 46 41 44 43 40 37 34 30 22 14 13 12 11 12 14 15 17 19 18 15 14 14 13 10 8 8 11 18 78
64 62 53 46 45 44 36 30 30 33 49 64 64 62 58 57 55 51 47 44 44 49 43 28 21 16 12 13 15 21 24 26 24 20 16 15 15 13 13 15 19 46 86
64 54 48 47 47 41 30 27 24 43 65 66 70 72 70 62 58 54 53 49 47 46 45 46 47 39 22 19 22 32 40 48 34 29 25 21 21 22 19 25 64 100 84
52 49 49 50 50 35 29 31 54 65 60 57 61 60 59 59 58 56 59 52 44 43 44 42 43 47 50 49 48 45 49 55 52 45 39 35 32 28 27 36 69 83 100
51 48 51 53 51 33 34 44 68 67 68 67 65 71 83 89 88 84 83 72 65 61 62 57 52 48 46 48 58 60 63 84 74 63 57 46 41 43 95 96 99 99 99
47 47 53 55 50 32 39 57 74 76 74 76 86 90 93 95 93 94 91 88 84 77 75 76 70 69 59 53 64 68 79 96 94 78 65 56 52 58 77 98 98 98 95
42 46 53 58 45 35 47 75 82 81 82 87 92 94 94 87 84 84 87 92 90 87 82 83 82 73 70 64 77 95 100 100 87 85 72 61 54 57 98 99 97 95 95
44 48 56 59 39 39 62 87 88 86 90 94 95 97 97 95 91 87 85 86 87 84 87 85 87 82 79 85 97 100 100 99 85 84 90 72 60 61 100 98 99 98 97
44 49 58 57 37 49 78 90 90 92 94 95 96 93 92 92 92 90 89 86 88 89 91 88 98 98 99 100 99 99 97 83 92 95 74 68 69 91 100 97 97 97 97
45 50 60 51 38 59 88 92 92 95 96 96 94 92 93 94 94 95 92 90 92 93 93 94 96 97 97 97 97 97 97 92 96 77 63 78 97 98 100 96 96 97 96
47 53 61 44 43 70 92 93 94 95 95 95 94 93 94 95 93 93 95 95 95 95 94 95 95 96 96 97 97 96 96 90 87 70 85 98 100 98 97 95 95 97 96
50 58 63 41 54 80 96 94 94 95 95 93 93 93 92 93 94 95 94 96 95 95 95 95 95 97 96 96 97 98 96 88 78 90 97 100 97 95 94 92 96 97 96